Location: Washington
(38.8950°N, 77.0370°W)
Time: 21:50:14
(UTC-05:00)

Tiangong 1 - Visible Passes

Search period start: 25 November 2014 00:00
Search period end: 05 December 2014 00:00
Orbit: 337 x 349 km, 42.8° (Epoch: 25 November)

Date Brightness Start Highest point End Pass type
(mag) Time Alt. Az. Time Alt. Az. Time Alt. Az.
25 Nov 1.8 05:56:15 23° NW 05:57:30 35° N 06:00:12 10° ENE visible
26 Nov 4.1 04:46:46 13° ENE 04:46:46 13° ENE 04:47:09 10° ENE visible
26 Nov 1.4 06:18:07 13° WNW 06:20:32 45° NNE 06:23:20 10° E visible
27 Nov 2.9 05:08:28 24° NE 05:08:28 24° NE 05:10:01 10° ENE visible
28 Nov 1.3 05:30:02 47° NNE 05:30:03 47° NNE 05:32:50 10° E visible
29 Nov 0.7 05:51:27 35° WNW 05:52:30 88° SW 05:55:22 10° ESE visible
30 Nov 4.4 04:41:26 12° E 04:41:26 12° E 04:41:44 10° E visible
30 Nov 1.9 06:12:45 16° W 06:14:39 34° SSW 06:17:18 10° SE visible
01 Dec 3.2 05:02:38 24° ESE 05:02:38 24° ESE 05:03:56 10° ESE visible
01 Dec 3.2 06:35:00 10° WSW 06:36:29 13° SW 06:37:58 10° S visible
02 Dec 2.5 05:23:44 26° S 05:23:44 26° S 05:25:30 10° SE visible
03 Dec 3.3 05:44:45 12° SSW 05:44:45 12° SSW 05:45:41 10° S visible
